View from above orbital plane
|
View from above satellite
|
Ground track
|
The orbit data is extracted from the following two-line orbital elements,
1 14974U 84046B 21016.86869347 .00000096 00000-0 82191-4 0 9998
2 14974 82.9344 247.9022 0044049 296.8369 73.6322 13.76941232842192
Epoch (UTC): | 16 January 2021 20:50:55 |
Eccentricity: | 0.0044049 |
inclination: | 82.9344° |
perigee height: | 942 km |
apogee height: | 1007 km |
right ascension of ascending node: | 247.9022° |
argument of perigee: | 296.8369° |
revolutions per day: | 13.76941232 |
mean anomaly at epoch: | 73.6322° |
orbit number at epoch: | 84219 |
The dashed part of the orbit path shows where the satellite is in the earth's shadow,
|
|